When you browse on this site, cookies collect data to enhance your experience and personalize the content and advertising you see.
Visit our Privacy Policy to learn more. By continuing to use the site, you agree to this use of cookies and data.
  • en France
  • Liste des pays
  • À 7 jours
  • Température de l'eau
  • Carte satellitaire
  • Carte météo
  • Widgets météo
  • user-avatar
    Se connecter

    Météo par heure à Vitusha

    Ce jour, 16 Novembre, Vendredi

    Heure Température Précipitation Vent Pression Humidité
    00:00 -5°C° 0 mm 2 m/s 767 mmHg 28%
    01:00 -5°C° 0 mm 2 m/s 767 mmHg 28%
    02:00 -5°C° 0 mm 2 m/s 767 mmHg 29%
    03:00 -4°C° 0 mm 1 m/s 768 mmHg 29%
    04:00 -6°C° 0 mm 2 m/s 768 mmHg 29%
    05:00 -6°C° 0 mm 2 m/s 768 mmHg 29%
    06:00 -6°C° 0 mm 2 m/s 768 mmHg 28%
    07:00 -6°C° 0 mm 2 m/s 769 mmHg 28%
    08:00 -5°C° 0 mm 2 m/s 769 mmHg 27%
    09:00 -5°C° 0 mm 2 m/s 769 mmHg 25%
    10:00 -4°C° 0 mm 2 m/s 769 mmHg 23%
    11:00 -3°C° 0 mm 2 m/s 769 mmHg 21%
    12:00 -2°C° 0 mm 2 m/s 769 mmHg 19%
    13:00 -2°C° 0 mm 2 m/s 769 mmHg 19%
    14:00 +1°C° 0 mm 1 m/s 769 mmHg 20%
    15:00 +1°C° 0 mm 1 m/s 769 mmHg 21%
    16:00 0°C° 0 mm 1 m/s 769 mmHg 21%
    17:00 -1°C° 0 mm 1 m/s 769 mmHg 22%
    18:00 -1°C° 0 mm 1 m/s 769 mmHg 22%
    19:00 -1°C° 0 mm 1 m/s 769 mmHg 22%
    20:00 -2°C° 0 mm 1 m/s 769 mmHg 22%
    21:00 -2°C° 0 mm 1 m/s 769 mmHg 22%
    22:00 -2°C° 0 mm 1 m/s 769 mmHg 22%
    23:00 -2°C° 0 mm 1 m/s 769 mmHg 21%

    Demain, 17 Novembre, Samedi

    Heure Température Précipitation Vent Pression Humidité
    00:00 -2°C° 0 mm 1 m/s 768 mmHg 21%
    01:00 -2°C° 0 mm 1 m/s 768 mmHg 21%
    02:00 -2°C° 0 mm 1 m/s 768 mmHg 21%
    03:00 -3°C° 0 mm 0 m/s 768 mmHg 21%
    04:00 -2°C° 0 mm 1 m/s 767 mmHg 21%
    05:00 -2°C° 0 mm 1 m/s 767 mmHg 21%
    06:00 -3°C° 0 mm 1 m/s 767 mmHg 21%
    07:00 -2°C° 0 mm 1 m/s 767 mmHg 20%
    08:00 -2°C° 0 mm 1 m/s 766 mmHg 20%
    09:00 -2°C° 0 mm 1 m/s 766 mmHg 20%
    10:00 -3°C° 0 mm 2 m/s 766 mmHg 18%
    11:00 -2°C° 0 mm 2 m/s 765 mmHg 17%
    12:00 -1°C° 0 mm 2 m/s 765 mmHg 16%
    13:00 -1°C° 0 mm 2 m/s 764 mmHg 17%
    14:00 -1°C° 0 mm 3 m/s 763 mmHg 18%
    15:00 -1°C° 0 mm 3 m/s 762 mmHg 19%
    16:00 -1°C° 0 mm 3 m/s 762 mmHg 20%
    17:00 -2°C° 0 mm 3 m/s 761 mmHg 21%
    18:00 -2°C° 0 mm 3 m/s 760 mmHg 22%
    19:00 -2°C° 0 mm 3 m/s 760 mmHg 22%
    20:00 -3°C° 0 mm 4 m/s 759 mmHg 23%
    21:00 -3°C° 0 mm 4 m/s 758 mmHg 23%
    22:00 -3°C° 0 mm 4 m/s 757 mmHg 23%
    23:00 -3°C° 0 mm 4 m/s 757 mmHg 23%

    Après-demain, 18 Novembre, Dimanche

    Heure Température Précipitation Vent Pression Humidité
    00:00 -3°C° 0 mm 4 m/s 756 mmHg 23%
    01:00 -3°C° 0 mm 4 m/s 755 mmHg 24%
    02:00 -3°C° 0 mm 4 m/s 755 mmHg 24%
    03:00 -4°C° 0 mm 5 m/s 754 mmHg 25%
    04:00 -3°C° 0 mm 4 m/s 753 mmHg 29%
    05:00 -3°C° 0 mm 4 m/s 753 mmHg 34%
    06:00 -3°C° 0 mm 4 m/s 752 mmHg 38%
    07:00 -3°C° 0 mm 4 m/s 752 mmHg 40%
    08:00 -3°C° 0 mm 4 m/s 751 mmHg 42%
    09:00 -3°C° 0 mm 4 m/s 751 mmHg 44%
    10:00 -3°C° 0 mm 4 m/s 751 mmHg 42%
    11:00 -2°C° 0 mm 4 m/s 751 mmHg 41%
    12:00 -2°C° 0 mm 4 m/s 751 mmHg 40%
    13:00 -1°C° 0 mm 3 m/s 750 mmHg 42%
    14:00 -1°C° 0 mm 3 m/s 750 mmHg 44%
    15:00 -1°C° 0 mm 3 m/s 750 mmHg 46%
    16:00 -1°C° 0 mm 3 m/s 750 mmHg 49%
    17:00 -1°C° 0 mm 2 m/s 750 mmHg 51%
    18:00 -2°C° 0 mm 2 m/s 751 mmHg 54%
    19:00 -2°C° 0 mm 2 m/s 751 mmHg 57%
    20:00 -2°C° 0 mm 2 m/s 751 mmHg 60%
    21:00 -2°C° 0 mm 2 m/s 751 mmHg 63%
    22:00 -2°C° 0.1 mm 2 m/s 751 mmHg 64%
    23:00 -2°C° 0.1 mm 2 m/s 752 mmHg 65%

    19 Novembre, Lundi

    Heure Température Précipitation Vent Pression Humidité
    00:00 -2°C° 0.1 mm 2 m/s 752 mmHg 66%
    01:00 -3°C° 0.1 mm 2 m/s 752 mmHg 66%
    02:00 -3°C° 0.1 mm 2 m/s 753 mmHg 65%
    03:00 -1°C° 0.1 mm 1 m/s 753 mmHg 65%
    04:00 -3°C° 0 mm 2 m/s 753 mmHg 63%
    05:00 -3°C° 0 mm 2 m/s 753 mmHg 61%
    06:00 -3°C° 0 mm 2 m/s 754 mmHg 60%
    07:00 -3°C° 0 mm 2 m/s 754 mmHg 57%
    08:00 -3°C° 0 mm 2 m/s 755 mmHg 55%
    09:00 -3°C° 0 mm 2 m/s 755 mmHg 53%
    10:00 -3°C° 0 mm 2 m/s 756 mmHg 50%
    11:00 -2°C° 0 mm 2 m/s 756 mmHg 47%
    12:00 -1°C° 0 mm 2 m/s 757 mmHg 44%
    13:00 -1°C° 0 mm 2 m/s 757 mmHg 45%
    14:00 -1°C° 0 mm 2 m/s 758 mmHg 46%
    15:00 -1°C° 0 mm 2 m/s 758 mmHg 48%
    16:00 -2°C° 0 mm 2 m/s 758 mmHg 49%
    17:00 -2°C° 0 mm 2 m/s 759 mmHg 50%
    18:00 -3°C° 0 mm 2 m/s 759 mmHg 52%
    19:00 -3°C° 0 mm 2 m/s 759 mmHg 51%
    20:00 -3°C° 0 mm 2 m/s 760 mmHg 51%
    21:00 -3°C° 0 mm 2 m/s 760 mmHg 50%
    22:00 -3°C° 0 mm 2 m/s 760 mmHg 50%
    23:00 -4°C° 0 mm 2 m/s 761 mmHg 49%

    20 Novembre, Mardi

    Heure Température Précipitation Vent Pression Humidité
    00:00 -4°C° 0 mm 2 m/s 761 mmHg 48%
    01:00 -4°C° 0 mm 2 m/s 761 mmHg 47%
    02:00 -4°C° 0 mm 2 m/s 761 mmHg 46%
    03:00 -4°C° 0 mm 2 m/s 761 mmHg 46%
    04:00 -4°C° 0 mm 2 m/s 761 mmHg 45%
    05:00 -4°C° 0 mm 2 m/s 761 mmHg 45%
    06:00 -4°C° 0 mm 2 m/s 761 mmHg 45%
    07:00 -4°C° 0 mm 2 m/s 761 mmHg 44%
    08:00 -4°C° 0 mm 2 m/s 761 mmHg 43%
    09:00 -4°C° 0 mm 2 m/s 761 mmHg 42%
    10:00 -3°C° 0 mm 2 m/s 761 mmHg 39%
    11:00 -2°C° 0 mm 2 m/s 761 mmHg 37%
    12:00 -1°C° 0 mm 2 m/s 761 mmHg 34%
    13:00 -1°C° 0 mm 2 m/s 761 mmHg 35%
    14:00 -1°C° 0 mm 2 m/s 760 mmHg 36%
    15:00 -2°C° 0 mm 2 m/s 760 mmHg 37%
    16:00 -2°C° 0 mm 2 m/s 760 mmHg 38%
    17:00 -2°C° 0 mm 3 m/s 759 mmHg 39%
    18:00 -2°C° 0 mm 3 m/s 759 mmHg 40%
    19:00 -2°C° 0 mm 3 m/s 759 mmHg 41%
    20:00 -2°C° 0 mm 3 m/s 758 mmHg 42%
    21:00 -2°C° 0 mm 3 m/s 758 mmHg 43%
    22:00 -2°C° 0 mm 3 m/s 758 mmHg 43%
    23:00 -2°C° 0 mm 3 m/s 758 mmHg 44%

    21 Novembre, Mercredi

    Heure Température Précipitation Vent Pression Humidité
    00:00 -2°C° 0 mm 3 m/s 757 mmHg 45%
    01:00 -4°C° 0.1 mm 3 m/s 757 mmHg 52%
    02:00 -3°C° 0.1 mm 2 m/s 756 mmHg 59%
    03:00 -3°C° 0.1 mm 2 m/s 756 mmHg 65%
    04:00 -4°C° 0.3 mm 3 m/s 756 mmHg 72%
    05:00 -4°C° 0.3 mm 3 m/s 755 mmHg 78%
    06:00 -5°C° 0.3 mm 3 m/s 755 mmHg 84%
    07:00 -4°C° 0.1 mm 3 m/s 755 mmHg 85%
    08:00 -4°C° 0.1 mm 3 m/s 755 mmHg 86%
    09:00 -4°C° 0.1 mm 3 m/s 754 mmHg 87%
    10:00 -3°C° 0 mm 2 m/s 754 mmHg 86%
    11:00 -2°C° 0 mm 2 m/s 754 mmHg 85%
    12:00 -2°C° 0 mm 2 m/s 754 mmHg 84%
    13:00 -2°C° 0 mm 2 m/s 753 mmHg 84%
    14:00 -2°C° 0 mm 2 m/s 753 mmHg 84%
    15:00 -2°C° 0 mm 2 m/s 752 mmHg 84%
    16:00 -2°C° 0 mm 2 m/s 752 mmHg 86%
    17:00 -3°C° 0 mm 2 m/s 752 mmHg 87%
    18:00 -3°C° 0 mm 2 m/s 752 mmHg 89%
    19:00 -3°C° 0 mm 2 m/s 751 mmHg 89%
    20:00 -3°C° 0 mm 2 m/s 751 mmHg 88%
    21:00 -3°C° 0 mm 2 m/s 751 mmHg 88%
    22:00 -3°C° 0 mm 2 m/s 751 mmHg 88%
    23:00 -4°C° 0 mm 2 m/s 750 mmHg 88%
    Voir plus